1501354800.76,40748,21.56,74418.5,5.25,-22.11,-22.47,0,*73
1501354801.96,40749,21.56,74414.0,5.29,-21.93,-22.11,0,*74
1501354803.18,40750,21.56,74412.8,5.29,-21.93,-22.21,0,*7F
1501354804.41,40751,21.56,74412.5,5.29,-22.21,-22.57,0,*75
1501354805.66,40752,21.56,74414.0,5.29,-22.31,-22.77,0,*75
1501354806.88,40753,21.56,74412.5,5.25,-22.41,-22.77,0,*7F
1501354808.11,40754,21.56,74412.0,5.25,-22.47,-22.83,0,*75
1501354809.37,40755,21.56,74416.8,5.25,-22.17,-22.47,0,*79
1501354810.62,40756,21.56,74412.0,5.25,-21.97,-22.17,0,*74
1501354811.86,40757,21.56,74412.8,5.25,-21.73,-22.17,0,*7F
1501354813.05,40758,21.56,74412.5,5.25,-22.03,-22.27,0,*77
1501354814.25,40759,21.56,74414.3,5.25,-22.27,-22.53,0,*73
1501354815.48,40760,21.56,74410.0,5.29,-22.21,-22.57,0,*77
1501354816.7,40761,21.56,74414.3,5.29,-22.07,-22.31,0,*72
1501354817.94,40762,21.56,74418.5,5.29,-21.97,-22.21,0,*7A
1501354819.14,40763,21.56,74412.3,5.25,-22.03,-22.27,0,*7F
1501354820.33,40764,21.56,74414.3,5.25,-22.11,-22.37,0,*7A
1501354821.6,40765,21.56,74414.5,5.25,-22.17,-22.47,0,*7A
1501354822.84,40766,21.56,74412.3,5.29,-21.97,-22.31,0,*7F
1501354824.06,40767,21.56,74412.3,5.29,-22.07,-22.31,0,*74
1501354825.27,40768,21.56,74414.0,5.29,-22.07,-22.21,0,*7A
1501354826.52,40769,21.56,74412.3,5.29,-21.97,-22.31,0,*70
1501354827.71,40770,21.56,74414.8,5.29,-22.11,-22.41,0,*72
1501354828.91,40771,21.56,74414.0,5.29,-21.93,-22.11,0,*7F
1501354830.14,40772,21.56,74412.5,5.25,-22.27,-22.47,0,*7F
1501354831.35,40773,21.56,74414.8,5.29,-22.07,-22.21,0,*70
1501354832.61,40774,21.56,74414.3,5.29,-22.21,-22.47,0,*73
1501354833.85,40775,21.56,74414.8,5.29,-22.31,-22.73,0,*74
1501354835.05,40776,21.56,74414.3,5.29,-22.27,-22.57,0,*76
1501354836.3,40777,21.56,74414.0,5.29,-22.21,-22.47,0,*70
1501354837.53,40778,21.56,74414.5,5.29,-21.83,-22.07,0,*70
1501354838.75,40779,21.56,74412.8,5.25,-21.87,-22.11,0,*7E
1501354840.01,40780,21.56,74412.5,5.25,-21.87,-22.17,0,*7E
1501354841.21,40781,21.56,74414.0,5.29,-21.93,-22.11,0,*70
1501354842.49,40782,21.56,74412.5,5.31,-21.67,-21.97,0,*7C
1501354843.68,40783,21.56,74412.8,5.29,-21.93,-22.07,0,*75
1501354844.88,40784,21.56,74412.5,5.29,-21.77,-22.11,0,*7F
1501354846.11,40785,21.56,74412.8,5.29,-21.83,-22.07,0,*72
1501354847.33,40786,21.56,74410.3,5.29,-21.77,-21.97,0,*70
1501354848.55,40787,21.56,74410.5,5.31,-21.63,-21.93,0,*79
1501354849.8,40788,21.56,74408.8,5.31,-21.83,-22.11,0,*71
1501354851.08,40789,21.56,74410.0,5.31,-22.21,-22.47,0,*78
1501354852.31,40790,21.56,74408.0,5.31,-22.27,-22.63,0,*70
1501354853.51,40791,21.56,74408.5,5.29,-22.27,-22.63,0,*78
1501354854.75,40792,21.56,74408.0,5.29,-22.31,-22.73,0,*7D
1501354856.0,40793,21.56,74408.8,5.29,-22.31,-22.77,0,*78
1501354857.28,40794,21.56,74410.0,5.31,-22.47,-22.77,0,*77
1501354858.49,40795,21.56,74412.3,5.29,-22.41,-22.73,0,*7D
1501354859.7,40796,21.5,74404.0,5.29,-22.57,-22.93,0,*77
1501354860.89,40797,21.56,74410.3,5.29,-22.41,-22.87,0,*74
1501354862.12,40798,21.56,74406.8,5.29,-22.47,-22.87,0,*7D
1501354863.32,40799,21.56,74404.3,5.29,-22.57,-22.93,0,*78
1501354864.57,40800,21.56,74408.8,5.31,-22.47,-22.87,0,*7A
1501354865.83,40801,21.56,74404.0,5.25,-22.47,-22.77,0,*71
1501354867.03,40802,21.56,74404.5,5.25,-22.37,-22.67,0,*74
1501354868.26,40803,21.56,74408.8,5.25,-22.37,-22.77,0,*74
1501354869.51,40804,21.56,74408.3,5.25,-22.47,-22.77,0,*74
1501354870.74,40805,21.56,74408.5,5.23,-22.57,-23.03,0,*70
1501354871.97,40806,21.56,74408.5,5.25,-22.47,-22.83,0,*7D
1501354873.17,40807,21.56,74410.5,5.23,-22.57,-22.87,0,*7F
1501354874.37,40808,21.56,74408.3,5.29,-22.57,-22.87,0,*7A
1501354875.63,40809,21.56,74410.5,5.25,-22.47,-22.77,0,*79
1501354876.83,40810,21.56,74412.0,5.23,-22.57,-22.83,0,*7D
1501354878.06,40811,21.56,74412.5,5.23,-22.57,-22.77,0,*77
1501354879.26,40812,21.56,74414.3,5.23,-22.53,-22.83,0,*7B
1501354880.47,40813,21.56,74410.5,5.23,-22.41,-22.73,0,*76
1501354881.69,40814,21.56,74412.3,5.23,-22.41,-22.73,0,*71
1501354882.91,40815,21.56,74412.0,5.23,-22.31,-22.57,0,*71
1501354884.11,40816,21.56,74412.5,5.23,-22.53,-22.87,0,*7B
1501354885.32,40817,21.56,74412.3,5.23,-22.57,-22.83,0,*7A
1501354886.52,40818,21.56,74412.3,5.23,-22.53,-22.83,0,*71
1501354887.72,40819,21.56,74414.0,5.23,-22.53,-22.87,0,*74
1501354888.92,40820,21.56,74412.3,5.23,-22.53,-22.87,0,*7E
1501354890.16,40821,21.56,74416.0,5.21,-22.41,-22.73,0,*75
1501354891.4,40822,21.56,74414.5,5.21,-22.31,-22.57,0,*77
1501354892.64,40823,21.56,74412.8,5.21,-22.41,-22.73,0,*77
1501354893.89,40824,21.56,74412.5,5.21,-22.31,-22.67,0,*72
1501354895.11,40825,21.56,74414.5,5.21,-22.41,-22.67,0,*74
1501354896.31,40826,21.56,74416.0,5.19,-22.37,-22.67,0,*7D
1501354897.52,40827,21.56,74418.3,5.21,-22.41,-22.67,0,*76
1501354898.78,40828,21.56,74416.5,5.19,-22.47,-22.77,0,*75
1501354900.02,40829,21.5,74412.5,5.21,-22.03,-22.31,0,*7D
1501354901.22,40830,21.56,74416.0,5.19,-21.77,-22.07,0,*7B
1501354902.44,40831,21.56,74416.0,5.21,-21.63,-21.77,0,*70
1501354903.69,40832,21.56,74412.3,5.21,-21.87,-22.07,0,*7D
1501354904.94,40833,21.56,74418.3,5.21,-21.87,-22.07,0,*7C
1501354906.18,40834,21.56,74418.0,5.21,-21.63,-21.87,0,*7A
1501354907.43,40835,21.56,74410.0,5.21,-21.73,-21.87,0,*7A
1501354908.66,40836,21.56,74412.8,5.23,-21.93,-22.17,0,*7F
1501354909.88,40837,21.56,74412.8,5.23,-22.03,-22.21,0,*71
1501354911.1,40838,21.56,74416.3,5.23,-22.21,-22.57,0,*7F
1501354912.32,40839,21.5,74412.5,5.23,-22.03,-22.21,0,*7F
1501354913.54,40840,21.56,74414.0,5.23,-22.17,-22.41,0,*72
1501354914.76,40841,21.56,74414.0,5.25,-21.97,-22.11,0,*7B
1501354915.96,40842,21.56,74414.5,5.23,-21.77,-21.93,0,*79
1501354917.19,40843,21.56,74414.5,5.25,-21.73,-21.97,0,*7E
1501354918.41,40844,21.56,74416.8,5.23,-21.63,-21.87,0,*7F
1501354919.63,40845,21.56,74414.5,5.23,-21.57,-21.63,0,*73
1501354920.88,40846,21.56,74414.3,5.25,-21.57,-21.87,0,*7C
1501354922.08,40847,21.56,74414.3,5.25,-22.03,-22.27,0,*76
1501354923.31,40848,21.56,74414.0,5.29,-21.53,-21.93,0,*7F
1501354924.53,40849,21.56,74414.0,5.29,-21.77,-21.97,0,*7C
1501354925.75,40850,21.56,74414.8,5.29,-22.07,-22.31,0,*7F
1501354926.97,40851,21.56,74414.3,5.29,-22.11,-22.21,0,*78
1501354928.19,40852,21.56,74414.3,5.29,-22.07,-22.31,0,*7D
1501354929.42,40853,21.56,74414.0,5.25,-22.27,-22.47,0,*73
1501354930.62,40854,21.56,74416.5,5.25,-22.27,-22.53,0,*71
1501354931.83,40855,21.56,74416.5,5.23,-22.41,-22.73,0,*74
1501354933.06,40856,21.56,74418.8,5.25,-22.31,-22.53,0,*74
1501354934.26,40857,21.56,74414.8,5.25,-22.37,-22.67,0,*74
1501354935.49,40858,21.56,74412.3,5.25,-22.37,-22.77,0,*7A
1501354936.68,40859,21.5,74414.3,5.23,-22.41,-22.87,0,*73
1501354937.92,40860,21.56,74416.3,5.25,-22.27,-22.47,0,*73
1501354939.18,40861,21.56,74418.0,5.25,-22.17,-22.47,0,*71
1501354940.4,40862,21.56,74416.0,5.23,-22.53,-22.73,0,*73
1501354941.63,40863,21.56,74416.0,5.25,-22.31,-22.63,0,*71
1501354942.83,40864,21.56,74414.0,5.25,-22.37,-22.67,0,*74
1501354944.03,40865,21.56,74414.0,5.23,-22.53,-22.87,0,*7F
1501354945.24,40866,21.56,74414.5,5.25,-22.53,-22.83,0,*7E
1501354946.44,40867,21.56,74418.0,5.25,-22.37,-22.67,0,*77
1501354947.66,40868,21.56,74420.3,5.23,-22.31,-22.67,0,*78
1501354948.89,40869,21.56,74414.5,5.23,-22.27,-22.47,0,*7C
1501354950.11,40870,21.56,74416.3,5.23,-22.31,-22.67,0,*71
1501354951.31,40871,21.56,74418.5,5.23,-22.53,-22.87,0,*7A
1501354952.53,40872,21.56,74418.8,5.23,-22.37,-22.73,0,*70
1501354953.75,40873,21.56,74416.3,5.23,-22.21,-22.53,0,*74
1501354954.95,40874,21.5,74414.0,5.23,-22.41,-22.67,0,*72
1501354956.16,40875,21.56,74416.0,5.23,-22.41,-22.73,0,*76
1501354957.41,40876,21.56,74416.0,5.21,-22.21,-22.53,0,*73
1501354958.69,40877,21.5,74412.5,5.21,-22.17,-22.31,0,*73
1501354959.93,40878,21.56,74416.5,5.21,-22.21,-22.57,0,*79
1501354961.17,40879,21.56,74414.5,5.21,-22.41,-22.73,0,*78
1501354962.41,40880,21.5,74412.0,5.21,-22.41,-22.73,0,*7E
1501354963.66,40881,21.56,74414.8,5.21,-22.37,-22.73,0,*7E
1501354964.9,40882,21.56,74418.3,5.21,-22.31,-22.67,0,*7E
1501354966.12,40883,21.56,74414.8,5.21,-22.41,-22.57,0,*7B
1501354967.32,40884,21.56,74416.0,5.19,-22.37,-22.57,0,*76
1501354968.56,40885,21.56,74418.5,5.21,-22.37,-22.73,0,*7A
1501354969.8,40886,21.56,74410.8,5.21,-22.21,-22.41,0,*7F
1501354971.06,40887,21.56,74416.3,5.23,-22.17,-22.31,0,*7E
1501354972.3,40888,21.56,74412.8,5.21,-22.03,-22.21,0,*77
1501354973.55,40889,21.56,74412.8,5.21,-21.93,-22.17,0,*79
1501354974.8,40890,21.56,74410.3,5.21,-22.03,-22.17,0,*7B
1501354976.04,40891,21.56,74414.8,5.21,-22.31,-22.57,0,*7F
1501354977.24,40892,21.56,74410.8,5.19,-22.11,-22.27,0,*72
1501354978.48,40893,21.56,74408.5,5.21,-22.17,-22.41,0,*7E
1501354979.73,40894,21.56,74404.3,5.21,-22.31,-22.53,0,*7E
1501354980.95,40895,21.56,74402.3,5.21,-22.07,-22.53,0,*7A
1501354982.22,40896,21.56,74410.0,5.21,-22.17,-22.31,0,*7C
1501354983.47,40897,21.56,74410.0,5.21,-22.17,-22.41,0,*7A
1501354984.71,40898,21.56,74418.8,5.21,-22.17,-22.41,0,*75
1501354985.91,40899,21.56,74412.3,5.23,-22.37,-22.57,0,*73
1501354987.13,40900,21.56,74412.5,5.23,-22.37,-22.73,0,*74
1501354988.32,40901,21.5,74408.5,5.23,-22.41,-22.67,0,*71
1501354989.54,40902,21.56,74412.3,5.23,-22.37,-22.73,0,*76
1501354990.78,40903,21.56,74414.3,5.21,-22.41,-22.73,0,*74
1501354992.01,40904,21.56,74414.8,5.21,-22.53,-22.87,0,*7B
1501354993.23,40905,21.56,74414.8,5.21,-22.53,-22.83,0,*7E
1501354994.46,40906,21.56,74416.3,5.21,-22.53,-22.87,0,*79
1501354995.67,40907,21.56,74414.3,5.21,-22.41,-22.67,0,*75
1501354996.92,40908,21.56,74416.8,5.19,-22.47,-22.73,0,*72
1501354998.17,40909,21.56,74418.0,5.19,-22.47,-22.73,0,*73
1501354999.38,40910,21.5,74416.0,5.19,-22.37,-22.57,0,*7A
1501355000.63,40911,21.56,74416.8,5.19,-22.47,-22.77,0,*7E
1501355001.88,40912,21.56,74420.5,5.19,-22.47,-22.73,0,*79
1501355003.12,40913,21.56,74416.8,5.21,-22.41,-22.73,0,*75
1501355004.38,40914,21.56,74418.0,5.19,-22.47,-22.77,0,*7B
1501355005.58,40915,21.56,74414.8,5.19,-22.37,-22.57,0,*7F
1501355006.83,40916,21.5,74410.8,5.19,-22.47,-22.77,0,*79
1501355008.05,40917,21.56,74414.5,5.19,-22.41,-22.73,0,*7A
1501355009.29,40918,21.5,74414.0,5.21,-22.41,-22.73,0,*7E
1501355010.53,40919,21.5,74412.8,5.19,-22.47,-22.63,0,*73
1501355011.75,40920,21.56,74418.8,5.17,-22.27,-22.57,0,*76
1501355012.95,40921,21.56,74416.5,5.19,-22.27,-22.57,0,*79
1501355014.23,40922,21.56,74414.0,5.17,-22.47,-22.77,0,*70
1501355015.47,40923,21.56,74414.8,5.17,-22.41,-22.73,0,*73
1501355016.72,40924,21.56,74418.8,5.17,-22.47,-22.87,0,*79
1501355017.95,40925,21.56,74418.8,5.17,-22.37,-22.63,0,*75
1501355019.2,40926,21.56,74418.0,5.17,-22.27,-22.47,0,*71
1501355020.45,40927,21.5,74414.5,5.17,-22.21,-22.63,0,*70
1501355021.68,40928,21.56,74416.8,5.17,-22.63,-22.93,0,*76
1501355022.9,40929,21.5,74412.8,5.17,-22.27,-22.63,0,*78
1501355024.13,40930,21.5,74410.0,5.17,-22.37,-22.63,0,*71
1501355025.37,40931,21.56,74416.3,5.17,-22.41,-22.73,0,*70
1501355026.62,40932,21.56,74412.5,5.17,-22.37,-22.77,0,*76
1501355027.83,40933,21.56,74412.8,5.15,-22.53,-22.83,0,*7C
1501355029.08,40934,21.5,74412.8,5.17,-22.47,-22.93,0,*7D
1501355030.33,40935,21.56,74418.0,5.17,-22.41,-22.77,0,*70
1501355031.58,40936,21.56,74416.5,5.17,-22.21,-22.57,0,*77
1501355032.83,40937,21.56,74416.8,5.17,-22.37,-22.73,0,*77
1501355034.07,40938,21.56,74418.8,5.17,-22.21,-22.37,0,*7F
1501355035.27,40939,21.56,74414.0,5.15,-22.27,-22.41,0,*7B
1501355036.49,40940,21.5,74410.5,5.17,-22.41,-22.63,0,*77
1501355037.69,40941,21.56,74412.8,5.15,-22.53,-22.83,0,*79
1501355038.95,40942,21.56,74412.3,5.17,-22.47,-22.93,0,*7C
1501355040.15,40943,21.56,74412.8,5.15,-22.53,-22.83,0,*7B
1501355041.37,40944,21.5,74412.5,5.17,-22.63,-22.87,0,*79
1501355042.62,40945,21.5,74410.5,5.17,-22.47,-22.67,0,*70
1501355043.83,40946,21.56,74414.8,5.15,-22.53,-22.83,0,*7E
1501355045.05,40947,21.5,74412.3,5.17,-22.63,-22.87,0,*7A
1501355046.3,40948,21.5,74410.5,5.15,-22.47,-22.77,0,*7E
1501355047.55,40949,21.56,74410.5,5.17,-22.41,-22.77,0,*7B
1501355048.8,40950,21.56,74412.8,5.17,-22.47,-22.87,0,*7A
1501355050.03,40951,21.5,74410.8,5.13,-22.53,-22.83,0,*7E
1501355051.28,40952,21.56,74414.5,5.13,-22.47,-22.83,0,*78
1501355052.5,40953,21.5,74414.5,5.15,-22.63,-22.77,0,*72
1501355053.7,40954,21.5,74412.5,5.15,-22.41,-22.53,0,*73
1501355054.92,40955,21.5,74414.0,5.13,-22.53,-22.83,0,*7A
1501355056.14,40956,21.56,74416.0,5.13,-22.63,-22.97,0,*7F
1501355057.36,40957,21.5,74414.8,5.13,-22.63,-22.97,0,*7E
1501355058.58,40958,21.5,74414.5,5.13,-22.67,-22.97,0,*75
1501355059.8,40959,21.5,74414.8,5.13,-22.63,-22.83,0,*75
1501355061.0,40960,21.5,74412.3,5.11,-22.57,-22.87,0,*7E
1501355062.21,40961,21.5,74414.5,5.11,-22.53,-22.83,0,*7F
1501355063.43,40962,21.56,74416.0,5.11,-22.31,-22.67,0,*72
1501355064.65,40963,21.5,74412.8,5.13,-22.41,-22.67,0,*76
1501355065.87,40964,21.5,74418.5,5.13,-22.53,-22.83,0,*78
1501355067.07,40965,21.5,74418.3,5.11,-22.57,-22.83,0,*7F
1501355068.3,40966,21.56,74422.0,5.11,-22.53,-22.73,0,*77
1501355069.52,40967,21.5,74418.0,5.11,-22.57,-22.73,0,*72
1501355070.77,40968,21.5,74420.5,5.13,-22.17,-22.67,0,*7E
1501355072.02,40969,21.5,74416.8,5.13,-22.31,-22.63,0,*7F
1501355073.29,40970,21.5,74416.5,5.13,-22.47,-22.77,0,*73
1501355074.52,40971,21.5,74418.8,5.13,-22.53,-22.83,0,*7C
1501355075.73,40972,21.5,74422.8,5.11,-22.57,-22.97,0,*7C
1501355077.0,40973,21.5,74420.5,5.13,-22.31,-22.77,0,*71
1501355078.2,40974,21.5,74416.8,5.11,-22.57,-22.87,0,*7B
1501355079.43,40975,21.56,74420.0,5.11,-22.53,-23.03,0,*73
1501355080.66,40976,21.5,74416.0,5.11,-22.57,-23.03,0,*74
1501355081.86,40977,21.5,74416.0,5.11,-22.57,-22.87,0,*78
1501355083.06,40978,21.5,74416.8,5.11,-22.57,-22.83,0,*73
1501355084.26,40979,21.5,74416.8,5.11,-22.67,-22.97,0,*74
1501355085.48,40980,21.5,74418.3,5.09,-22.63,-22.93,0,*7B
1501355086.73,40981,21.5,74418.3,5.09,-22.73,-22.93,0,*7B
1501355088.0,40982,21.5,74416.0,5.09,-22.73,-23.03,0,*70
1501355089.25,40983,21.5,74418.5,5.09,-22.73,-23.09,0,*7B
1501355090.48,40984,21.5,74416.0,5.09,-22.53,-22.87,0,*79
1501355091.74,40985,21.5,74412.8,5.09,-22.53,-22.77,0,*77
1501355092.94,40986,21.5,74414.5,5.07,-22.63,-22.93,0,*73
1501355094.16,40987,21.5,74418.0,5.07,-22.73,-22.93,0,*73
1501355095.39,40988,21.5,74416.8,5.07,-22.73,-22.93,0,*7C
1501355096.64,40989,21.5,74416.5,5.07,-22.77,-23.03,0,*71
1501355097.92,40990,21.5,74418.8,5.09,-22.77,-23.19,0,*7C
1501355099.18,40991,21.56,74420.0,5.07,-22.77,-23.03,0,*78
1501355100.43,40992,21.56,74422.5,5.09,-22.73,-23.09,0,*7B
1501355101.7,40993,21.5,74416.0,5.09,-22.73,-23.03,0,*70
1501355102.94,40994,21.5,74418.0,5.07,-22.77,-23.09,0,*77
1501355104.17,40995,21.56,74418.8,5.07,-22.77,-23.09,0,*76
1501355105.43,40996,21.5,74416.8,5.07,-22.77,-23.19,0,*74
1501355106.68,40997,21.5,74416.8,5.07,-22.73,-23.19,0,*71
1501355107.91,40998,21.5,74414.3,5.03,-22.77,-23.09,0,*7F
1501355109.11,40999,21.5,74414.8,5.03,-22.83,-23.13,0,*7E
1501355110.34,41000,21.56,74418.3,5.03,-22.93,-23.23,0,*74
1501355111.58,41001,21.56,74420.8,5.03,-22.77,-22.93,0,*75
1501355112.8,41002,21.5,74416.8,5.01,-22.83,-23.09,0,*7D
1501355114.06,41003,21.5,74416.0,5.01,-22.77,-23.09,0,*77
1501355115.29,41004,21.5,74420.3,5.03,-22.57,-22.77,0,*78
1501355116.5,41005,21.5,74418.5,5.03,-22.57,-22.83,0,*72
1501355117.73,41006,21.5,74416.0,5.03,-22.77,-23.09,0,*70
1501355118.99,41007,21.5,74416.3,5.01,-22.77,-23.09,0,*73
1501355120.21,41008,21.5,74420.0,5.01,-22.67,-22.93,0,*7F
1501355121.44,41009,21.5,74420.3,5.01,-22.57,-22.83,0,*7C
1501355122.66,41010,21.5,74418.3,5.01,-22.63,-22.83,0,*73
1501355123.89,41011,21.5,74418.3,5.03,-22.47,-22.67,0,*7C
1501355125.17,41012,21.5,74416.0,5.01,-22.47,-22.77,0,*7C
1501355126.42,41013,21.5,74418.0,5.01,-22.31,-22.57,0,*7E
1501355127.67,41014,21.5,74416.8,5.01,-22.31,-22.57,0,*79
1501355128.92,41015,21.5,74420.3,5.01,-22.27,-22.47,0,*7E
1501355130.12,41016,21.5,74414.3,5.03,-22.41,-22.67,0,*7D
1501355131.41,41017,21.5,74414.5,5.01,-22.17,-22.47,0,*7F
1501355132.63,41018,21.5,74416.3,5.03,-22.17,-22.41,0,*74
1501355133.86,41019,21.5,74412.5,5.01,-22.57,-22.83,0,*7D
1501355135.08,41020,21.5,74412.8,5.01,-22.63,-22.93,0,*71
1501355136.31,41021,21.5,74412.8,5.01,-22.57,-22.97,0,*73
1501355137.54,41022,21.5,74412.8,5.01,-22.63,-22.93,0,*73
1501355138.79,41023,21.5,74412.3,5.01,-22.77,-23.09,0,*75
1501355140.05,41024,21.5,74414.8,5.01,-22.77,-23.09,0,*72
1501355141.27,41025,21.5,74418.5,5.01,-22.67,-22.83,0,*71
1501355142.5,41026,21.5,74414.5,5.01,-22.63,-22.93,0,*77
1501355143.72,41027,21.5,74416.5,5.01,-22.67,-22.93,0,*72
1501355144.98,41028,21.5,74416.8,5.01,-22.77,-22.97,0,*78
1501355146.23,41029,21.56,74418.3,5.01,-22.83,-23.23,0,*7C
1501355147.43,41030,21.5,74418.0,4.99,-22.83,-23.13,0,*77
1501355148.69,41031,21.5,74416.3,4.99,-22.73,-23.03,0,*78
1501355149.91,41032,21.5,74416.3,4.99,-22.73,-23.13,0,*7A
1501355151.14,41033,21.5,74418.0,4.99,-22.87,-23.19,0,*7A
1501355152.36,41034,21.5,74414.3,4.99,-22.87,-23.29,0,*7E
1501355153.61,41035,21.5,74416.0,4.97,-22.87,-23.23,0,*7B
1501355154.86,41036,21.5,74416.0,4.97,-22.87,-23.23,0,*78
1501355156.11,41037,21.5,74418.0,4.99,-22.73,-23.03,0,*7E
1501355157.36,41038,21.5,74418.5,4.97,-22.87,-23.23,0,*76
1501355158.57,41039,21.5,74418.0,4.99,-22.83,-23.13,0,*7E
1501355159.76,41040,21.56,74420.0,4.99,-22.63,-22.87,0,*72
1501355161.02,41041,21.5,74418.0,4.97,-22.57,-22.77,0,*75
1501355162.23,41042,21.5,74420.3,4.99,-22.57,-22.93,0,*72
1501355163.46,41043,21.5,74422.5,4.99,-22.73,-22.97,0,*71
1501355164.71,41044,21.5,74422.0,4.97,-22.73,-22.93,0,*7C
1501355165.98,41045,21.5,74416.5,4.97,-22.73,-23.03,0,*75
1501355167.24,41046,21.5,74412.3,4.97,-22.77,-23.09,0,*78
1501355168.47,41047,21.5,74416.0,4.97,-22.67,-22.93,0,*7A
1501355169.72,41048,21.5,74414.3,4.97,-22.77,-22.93,0,*74
1501355170.97,41049,21.5,74416.8,4.97,-22.73,-23.09,0,*73
1501355172.23,41050,21.5,74418.8,4.97,-22.77,-23.09,0,*7F
1501355173.43,41051,21.5,74416.3,4.95,-22.87,-23.09,0,*73
1501355174.64,41052,21.5,74418.0,4.95,-22.67,-22.93,0,*7C
1501355175.88,41053,21.5,74416.0,4.95,-22.77,-23.09,0,*7E
1501355177.1,41054,21.5,74416.5,4.95,-22.87,-23.19,0,*77
1501355178.31,41055,21.5,74416.0,4.95,-22.67,-22.87,0,*7E
1501355179.54,41056,21.5,74416.3,4.95,-22.77,-23.09,0,*7B
1501355180.8,41057,21.5,74416.3,4.95,-22.77,-23.03,0,*70
1501355182.01,41058,21.5,74418.3,4.95,-22.53,-22.87,0,*74
1501355183.27,41059,21.5,74418.5,4.93,-22.27,-22.47,0,*7C
1501355184.47,41060,21.5,74414.5,4.95,-22.27,-22.41,0,*76
1501355185.67,41061,21.5,74412.8,4.95,-22.11,-22.37,0,*73
1501355186.88,41062,21.5,74418.3,4.95,-22.37,-22.57,0,*72
1501355188.11,41063,21.56,74420.3,4.95,-22.53,-22.77,0,*73
1501355189.35,41064,21.5,74416.8,4.93,-22.57,-22.83,0,*7D
1501355190.55,41065,21.5,74414.5,4.95,-22.37,-22.53,0,*71
1501355191.78,41066,21.5,74416.3,4.95,-22.21,-22.41,0,*76
1501355193.0,41067,21.5,74416.8,4.97,-22.11,-22.37,0,*77
1501355194.2,41068,21.5,74418.8,4.95,-22.27,-22.41,0,*7E
1501355195.43,41069,21.5,74416.5,4.95,-22.53,-22.77,0,*79
1501355196.66,41070,21.5,74416.0,4.97,-22.37,-22.57,0,*73
1501355197.91,41071,21.5,74418.5,4.97,-22.57,-22.77,0,*76
1501355199.15,41072,21.5,74418.8,4.95,-22.57,-22.77,0,*77
1501355200.35,41073,21.5,74418.8,4.95,-22.27,-22.53,0,*77
1501355201.56,41074,21.5,74418.8,4.95,-22.37,-22.57,0,*75
1501355202.76,41075,21.5,74416.0,4.95,-22.41,-22.57,0,*75
1501355204.0,41076,21.5,74416.0,4.95,-22.53,-22.77,0,*77
1501355205.2,41077,21.5,74418.8,4.95,-22.67,-22.93,0,*7B
1501355206.41,41078,21.5,74416.8,4.95,-22.67,-22.87,0,*71
1501355207.61,41079,21.5,74418.0,4.95,-22.57,-22.87,0,*73
1501355208.88,41080,21.5,74412.8,4.93,-22.77,-22.97,0,*70
1501355210.08,41081,21.5,74418.3,4.95,-22.63,-22.93,0,*76
1501355211.32,41082,21.5,74416.8,4.95,-22.53,-22.77,0,*7C
1501355212.52,41083,21.5,74416.5,4.95,-22.67,-22.93,0,*70
1501355213.75,41084,21.5,74416.3,4.93,-22.63,-22.97,0,*71
1501355214.95,41085,21.5,74418.5,4.95,-22.27,-22.41,0,*7D
1501355216.16,41086,21.5,74416.8,4.95,-22.53,-22.87,0,*77
1501355217.39,41087,21.5,74418.5,4.95,-22.73,-22.93,0,*71
1501355218.65,41088,21.5,74416.5,4.93,-22.77,-23.09,0,*7E
1501355219.91,41089,21.5,74418.3,4.93,-22.73,-23.09,0,*7B
1501355221.16,41090,21.5,74416.8,4.93,-22.63,-22.73,0,*7E
1501355222.41,41091,21.5,74418.5,4.93,-22.57,-22.73,0,*78
1501355223.64,41092,21.5,74416.0,4.93,-22.57,-22.83,0,*74
1501355224.88,41093,21.5,74418.8,4.93,-22.41,-22.63,0,*7C
1501355226.11,41094,21.5,74416.3,4.93,-22.41,-22.63,0,*7B
1501355227.34,41095,21.5,74422.3,4.93,-22.57,-22.63,0,*7D
1501355228.58,41096,21.5,74420.0,4.93,-22.57,-22.83,0,*70
1501355229.81,41097,21.5,74418.8,4.93,-22.57,-22.83,0,*71
1501355231.07,41098,21.5,74420.5,4.93,-22.31,-22.63,0,*70
1501355232.33,41099,21.5,74418.3,4.93,-22.31,-22.63,0,*71
1501355233.56,41100,21.5,74418.0,4.93,-22.57,-22.83,0,*7E
1501355234.82,41101,21.5,74418.3,4.93,-22.73,-22.97,0,*7C
1501355236.05,41102,21.5,74418.3,4.93,-22.57,-22.83,0,*7C
1501355237.28,41103,21.5,74418.0,4.93,-22.57,-22.83,0,*7D
1501355238.54,41104,21.5,74418.3,4.93,-22.73,-22.97,0,*79
1501355239.77,41105,21.5,74416.5,4.93,-22.63,-22.83,0,*7C
1501355241.02,41106,21.5,74420.3,4.91,-22.57,-22.73,0,*75
1501355242.24,41107,21.5,74416.3,4.91,-22.57,-22.97,0,*7E
1501355243.47,41108,21.5,74416.3,4.91,-22.63,-22.93,0,*72
1501355244.71,41109,21.5,74418.8,4.91,-22.73,-22.93,0,*72
1501355245.91,41110,21.5,74416.5,4.89,-22.67,-22.87,0,*73
1501355247.13,41111,21.5,74416.5,4.91,-22.63,-22.83,0,*7B
1501355248.37,41112,21.5,74418.8,4.91,-22.73,-22.97,0,*7C
1501355249.62,41113,21.5,74418.8,4.91,-22.73,-23.09,0,*7B
1501355250.87,41114,21.5,74418.0,4.89,-22.77,-23.03,0,*7B
1501355252.07,41115,21.5,74420.0,4.89,-22.63,-22.97,0,*73
1501355253.32,41116,21.5,74418.8,4.91,-22.47,-22.83,0,*7A
1501355254.55,41117,21.5,74416.3,4.89,-22.53,-22.77,0,*7C
1501355255.74,41118,21.5,74422.0,4.89,-22.63,-22.87,0,*7F
1501355256.96,41119,21.5,74418.0,4.89,-22.67,-22.77,0,*75
1501355258.21,41120,21.5,74416.3,4.91,-22.57,-22.73,0,*71
1501355259.4,41121,21.5,74418.0,4.89,-22.67,-22.97,0,*70
1501355260.68,41122,21.5,74416.3,4.87,-22.73,-23.03,0,*74
1501355261.88,41123,21.5,74418.3,4.89,-22.53,-22.67,0,*7A
1501355263.07,41124,21.5,74416.8,4.89,-22.63,-22.87,0,*70
1501355264.32,41125,21.5,74422.0,4.87,-22.73,-23.09,0,*79
1501355265.59,41126,21.5,74418.8,4.87,-22.73,-23.03,0,*70
1501355266.82,41127,21.5,74416.0,4.87,-22.83,-23.09,0,*74
1501355268.05,41128,21.5,74418.5,4.87,-22.57,-22.83,0,*71
1501355269.28,41129,21.5,74418.3,4.87,-22.57,-22.83,0,*70
1501355270.48,41130,21.5,74416.5,4.89,-22.67,-22.93,0,*74
1501355271.75,41131,21.5,74416.8,4.87,-22.73,-23.03,0,*76
1501355273.0,41132,21.5,74418.3,4.85,-22.73,-23.03,0,*77
1501355274.2,41133,21.5,74418.5,4.85,-22.67,-23.09,0,*79
1501355275.4,41134,21.5,74418.3,4.85,-22.67,-22.93,0,*7C
1501355276.64,41135,21.5,74416.5,4.87,-22.57,-22.93,0,*7C
1501355277.89,41136,21.5,74418.8,4.87,-22.57,-22.73,0,*71
1501355279.12,41137,21.5,74418.5,4.85,-22.53,-22.73,0,*76
1501355280.34,41138,21.5,74418.5,4.85,-22.53,-22.73,0,*79
1501355281.57,41139,21.5,74416.0,4.85,-22.53,-22.73,0,*78
1501355282.77,41140,21.5,74422.3,4.85,-22.67,-22.93,0,*7F
1501355283.99,41141,21.5,74418.5,4.85,-22.73,-23.09,0,*79
1501355285.19,41142,21.5,74418.0,4.85,-22.57,-22.83,0,*7F
1501355286.4,41143,21.5,74418.5,4.85,-22.53,-22.83,0,*7A
1501355287.6,41144,21.5,74418.3,4.85,-22.53,-22.93,0,*7C
1501355288.8,41145,21.5,74420.3,4.85,-22.67,-22.83,0,*7B
1501355290.0,41146,21.5,74418.8,4.85,-22.37,-22.67,0,*77
1501355291.22,41147,21.5,74414.8,4.85,-22.21,-22.41,0,*75
1501355292.42,41148,21.5,74416.0,4.85,-22.37,-22.57,0,*7A
1501355293.64,41149,21.5,74414.8,4.85,-22.67,-23.03,0,*7E
1501355294.85,41150,21.5,74416.0,4.85,-22.53,-22.83,0,*78
1501355296.04,41151,21.5,74414.0,4.81,-22.63,-22.87,0,*7A
1501355297.27,41152,21.5,74416.5,4.81,-22.57,-22.73,0,*75
1501355298.49,41153,21.5,74418.8,4.81,-22.63,-22.77,0,*77
1501355299.69,41154,21.5,74418.5,4.85,-22.37,-22.67,0,*74
1501355300.89,41155,21.5,74416.3,4.85,-22.53,-22.93,0,*7C
1501355302.09,41156,21.5,74418.8,4.85,-22.67,-22.83,0,*79
1501355303.3,41157,21.5,74416.8,4.85,-22.53,-22.83,0,*7F
1501355304.49,41158,21.5,74418.3,4.85,-22.67,-22.83,0,*77